Location: Crayja
(6.2254°N, 10.6273°W)
Time: 06:19:14
(UTC+00:00)

Cosmos 1605 Rocket - Pass Details

Date: 17 February 2020
Orbit: 944 x 1007 km, 82.9° (Epoch: 07 April)

Event Time Altitude Azimuth Distance (km) Brightness Sun altitude
Rises 06:00:49 0° 348° (NNW) 3,631 6.8 -14.9°
Reaches altitude 10° 06:03:22 10° 344° (NNW) 2,678 6.0 -14.3°
Maximum altitude 06:09:19 56° 268° (W) 1,115 4.0 -12.8°
Drops below altitude 10° 06:15:15 10° 190° (S) 2,659 6.3 -11.4°
Sets 06:17:46 0° 186° (S) 3,603 7.0 -10.8°
